Regional Weather Roundup
Issued by NWS

Home | Current Version | Previous Version | Graphics & Text | Print | Product List | Glossary On
Versions: 1 2 3 4 5 6 7 8 9 10 11 12 13 14 15 16 17 18 19 20 21 22 23 24 25 26 27 28 29 30 31 32 33 34 35 36 37 38 39 40 41 42 43 44 45 46 47 48 49 50
000
ASUS43 KFSD 161710
RWRSD

WEATHER ROUNDUP FOR SOUTH DAKOTA
NATIONAL WEATHER SERVICE SIOUX FALLS SD
1200 PM CDT WED AUG 16 2017

NOTE: "FAIR" INDICATES FEW OR NO CLOUDS BELOW 12,000 FEET WITH NO
SIGNIFICANT WEATHER AND/OR OBSTRUCTIONS TO VISIBILITY.


SDZ001>005-009-010-012>017-161800-
NORTHWEST AND NORTH CENTRAL SOUTH DAKOTA

CITY           SKY/WX    TMP DP  RH WIND       PRES   REMARKS
BUFFALO          N/A     74  53  48 N5        29.95S
FAITH            N/A     70  59  68 N17       29.96S
MOBRIDGE       CLOUDY    68  60  75 N12       29.89R
$$

SDZ012>016-024>037-041>051-057-063-072>074-161800-
SOUTHWEST AND SOUTH CENTRAL SOUTH DAKOTA

CITY           SKY/WX    TMP DP  RH WIND       PRES   REMARKS
RAPID CTY ARPT SUNNY     72  55  55 N18G25    30.00F
PIERRE         CLOUDY    66  59  78 N15G23    29.88S
CUSTER         SUNNY     67  40  37 NE10G17   30.10R
PHILIP         CLOUDY    69  59  70 N10       29.95R
PINE RIDGE     CLOUDY    66  59  78 N8        30.02R
SPEARFISH      FAIR      70  48  46 NW9       30.06S
WINNER         LGT RAIN  66  64  93 NW18      29.88R
$$

SDZ004>011-016>023-039-040-161800-
NORTHEAST SOUTH DAKOTA

CITY           SKY/WX    TMP DP  RH WIND       PRES   REMARKS
ABERDEEN       LGT RAIN  69  66  90 NW6       29.84S
WATERTOWN      LGT RAIN  67  67 100 E3        29.84S
BROOKINGS      LGT RAIN  67  65  93 NE7       29.83F
SISSETON         N/A     68  67  96 S3        29.84S
$$

SDZ017-020-022-023-036>040-048>070-161800-
SOUTHEAST SOUTH DAKOTA

CITY           SKY/WX    TMP DP  RH WIND       PRES   REMARKS
SIOUX FALLS    RAIN      68  67  96 N5        29.81S FOG
HURON          RAIN      68  66  93 CALM      29.84R FOG
CHAMBERLAIN    DRIZZLE   69  69 100 N3        29.85S
MITCHELL       LGT RAIN  68  66  93 N3        29.85R
YANKTON        RAIN      66  65  96 N12       29.80F FOG
$$

ABBREVIATIONS USED IN REMARKS
   TC - TEMPERATURE IN CELSIUS
  WCI - WIND CHILL INDEX
   HX - HEAT INDEX
  VSB - VISIBILITY




USA.gov is the U.S. government's official web portal to all federal, state and local government web resources and services.